Location: Praha
(50.0833°N, 14.4667°E)
Time: 15:45:52
(UTC+02:00)

Envisat - Visible Passes

Search period start: 15 October 2019 00:00
Search period end: 25 October 2019 00:00
Orbit: 764 x 766 km, 98.1° (Epoch: 15 October)

Date Brightness Start Highest point End Pass type
(mag) Time Alt. Az. Time Alt. Az. Time Alt. Az.
15 Oct 3.6 19:17:58 10° S 19:22:59 61° WSW 19:28:03 10° NNW visible
16 Oct 3.0 18:41:10 10° SSE 18:46:12 69° ENE 18:51:17 10° N visible
16 Oct 5.7 20:22:09 10° SW 20:25:44 19° W 20:29:20 10° NW visible
17 Oct 6.1 06:46:26 10° NE 06:49:45 17° E 06:53:02 10° SE visible
17 Oct 4.6 19:43:55 10° SSW 19:48:37 37° W 19:53:20 10° NNW visible
18 Oct 3.2 19:06:37 10° S 19:11:42 75° WSW 19:16:48 10° NNW visible
18 Oct 6.2 20:50:00 10° WSW 20:51:37 11° W 20:53:15 10° WNW visible
19 Oct 3.1 18:30:01 10° SSE 18:34:58 56° ENE 18:39:57 10° N visible
19 Oct 5.4 20:10:20 10° SW 20:14:21 23° W 20:18:24 10° NW visible
20 Oct 6.3 06:35:44 10° NE 06:38:20 14° E 06:40:54 10° ESE visible
20 Oct 4.2 19:32:25 10° S 19:37:17 46° W 19:42:11 10° NNW visible
21 Oct 3.0 18:55:20 10° SSE 19:00:25 90° ENE 19:05:33 10° NNW visible
21 Oct 6.0 20:37:29 10° WSW 20:40:11 14° W 20:42:53 10° NW visible
22 Oct 5.9 07:00:11 10° NE 07:04:10 23° E 07:08:08 10° SE visible
22 Oct 5.1 19:58:37 10° SSW 20:02:58 28° W 20:07:22 10° NW visible
23 Oct 6.6 06:25:30 10° ENE 06:26:53 11° E 06:28:16 10° E visible
23 Oct 3.7 19:20:59 10° S 19:25:58 56° W 19:31:00 10° NNW visible
24 Oct 2.9 18:44:06 10° SSE 18:49:10 74° ENE 18:54:16 10° N visible
24 Oct 5.8 20:25:24 10° SW 20:28:46 18° W 20:32:09 10° NW visible
